Location: The Jewett Observatory
(46.7288°N, 117.1525°W)
Time: 05:31:09
(UTC-08:00)

Meteor 1-28 Rocket - Visible Passes

Search period start: 21 December 2014 00:00
Search period end: 31 December 2014 00:00
Orbit: 514 x 532 km, 97.2° (Epoch: 20 December)

Date Brightness Start Highest point End Pass type
(mag) Time Alt. Az. Time Alt. Az. Time Alt. Az.
21 Dec 4.4 06:36:32 10° SE 06:40:12 45° ENE 06:43:54 10° N visible
22 Dec 4.9 06:24:11 10° SE 06:27:39 33° ENE 06:31:09 10° N visible
23 Dec 5.4 06:11:57 10° ESE 06:15:07 25° ENE 06:18:18 10° NNE visible
24 Dec 5.8 05:59:50 10° ESE 06:02:35 19° ENE 06:05:20 10° NNE visible
25 Dec 6.1 05:47:56 10° E 05:50:04 15° ENE 05:52:12 10° NNE visible
26 Dec 6.3 05:36:30 10° ENE 05:37:33 11° ENE 05:38:36 10° NE visible
27 Dec 3.5 06:54:41 10° SSE 06:58:31 76° ENE 07:02:23 10° N visible
28 Dec 4.0 06:42:06 10° SSE 06:45:51 54° ENE 06:49:38 10° N visible
29 Dec 4.6 06:29:37 10° SE 06:33:13 39° ENE 06:36:49 10° N visible
30 Dec 5.2 06:17:14 10° SE 06:20:34 29° ENE 06:23:56 10° N visible
